Погода в Магнитогорске

Хотите узнать прогноз погоды в Магнитогорске? Тогда Вам сюда: Погода в Магнитогорске

Поиск расширенной информации на нашем сайте:

Полезная информация:

Новости сайта



02.01.2020
Опубликован Долгосрочный прогноз погоды по городам России и ближнего зарубежья на январь 2020 года.
Карты: Прогноз на январь и февраль 2020 года, Сравнение прогнозируемой аномалии приземной температуры воздуха на январь 2020 года по разным моделям.




Погода в Магнитогорске - сегодня

Время (UTC), дата Ветер
(°,м/с) 
Видим.   Явления Облачность Т
(°С)
Тd
(°С)
f(%) Тe
(°С)
Pmin
(гПа)
dP
(гПа)
Po
(мм)
O2
(г/м3)
Тmin Tmax R s Состояние
почвы
09 19.09.20 200 (Ю) 6-11{14}  20000 м    8/0 верхняя 
[Ci fib]
+18.2 -1.3 27 +18  1009.3  -2.9  724  273           
12 19.09.20 190 (Ю) 3{13}  20000 м    9/0 средняя 
[Ac trans]
+17.9 -2.8 24 +18  1006.8  -2.4  722  273           
15 19.09.20 180 (Ю) 10 км    10/10 600 м 
[Sc]
+14.4 -1.9 32 +14  1004.7  -2.5  720  276    +19.1       
18 19.09.20 170 (Ю) 10 км    10/10 600 м 
[Sc]
+13.4 -2.8 32 +13  1002.3  -2.5  718  276           
21 19.09.20 180 (Ю) 10 км    10/10 600 м 
[Sc]
+12.9 -3.5 32 +13  997.8  -4.3  715  275           
00 20.09.20 150 (ЮВ) 7-11{11}  10 км    10/10 600 м 
[Sc]
+12.9 +0.1 41 +12  994  -3.7  712  274           
03 20.09.20 180 (Ю) 5{13}  20000 м    4/4 600 м 
[Sc]
+8.4 +5.2 80 +7  991.4  -3  710  277  +8.4        сухая 
06 20.09.20 200 (Ю) 4{11}  20000 м  {дождь}  9/9 600 м 
[Sc]
+9 +6.3 83 +8  989.8  -1.4  709  275           
09 20.09.20 220 (ЮЗ) 5-11{11}  20000 м    9/9 600 м 
[Sc]
+11 +4.9 66 +10  989.4  -0.1  709  274           
12 20.09.20 250 (З) 8-13{15}  20000 м    8/8 600 м 
[Sc]
+7.8 +0.1 58 +5  993.7  3.6  712  279           
15 20.09.20 260 (З) 7-13{16}  10 км    8/8 600 м 
[Sc]
+6.5 +0.4 65 +4  997.2  3.1  714  281    +12.6     
18 20.09.20 260 (З) 5-10{14}  10 км    6/6 600 м 
[Sc]
+6.6 -0.4 61 +5  999  1.7  715  281           
21 20.09.20 270 (З) 4{11}  10 км    4/4 600 м 
[Sc]
+5.3 +0.2 70 +4  999.9  0.7  716  283           
00 21.09.20 230 (ЮЗ) 10 км    ясно 
+2.8 -0.8 77 +1  1001.4  716  286           
03 21.09.20 280 (З) 4-10{10}  20000 м    3/3 600 м 
[Sc]
+5.9 -1.2 60 +4  1002.4  1.4  718  283  +2.8        сухая 
06 21.09.20 310 (СЗ) 5-11{14}  20000 м    8/8 600 м 
[Sc]
+7.1 -3.7 46 +5  1005  2.6  719  283           
09 21.09.20 280 (З) 5{13}  20000 м    8/8 600 м 
[Sc]
+10.8 -2.3 40 +10  1005.2  0.9  720  279           
12 21.09.20 280 (З) 5{11}  20000 м    6/6 600 м 
[Sc]
+9.6 -3.2 40 +8  1006.5  721  281           
15 21.09.20 270 (З) 3{10}  10 км    4/4 600 м 
[Sc]
+6 -0.7 62 +5  1008.9  1.7  722  285    +11.3       
18 21.09.20 230 (ЮЗ) 10 км    10/0 средняя 
[As trans]
+4.8 +0.7 75 +4  1009.2  0.2  722  286           
21 21.09.20 240 (ЮЗ) 10 км    4/0 средняя 
[Ac trans]
+4.6 +0.7 76 +3  1008.4  -0.8  722  286           
00 22.09.20 210 (ЮЗ) 3{10}  10 км    8/0 средняя 
[Ac trans]
+5.4 +1.2 74 +4  1006.3  -1.9  720  284           
03 22.09.20 250 (З) 20000 м    8/8 600 м 
[Sc]
+5.7 +1.6 75 +4  1006.7  0.4  721  284  +4.2        сухая 
06 22.09.20 310 (СЗ) 5{12}  20000 м    6/6 600 м 
[Sc]
+9.2 +0.1 53 +8  1008  1.8  722  281           
09 22.09.20 300 (СЗ) 4{12}  20000 м    8/8 600 м 
[Sc]
+11.5 -0.9 42 +11  1009.1  1.4  723  280           
Время (UTC), дата Ветер
(°,м/с) 
Видим.   Явления Облачность Т
(°С)
Тd
(°С)
f(%) Тe
(°С)
Pmin
(гПа)
dP
(гПа)
Po
(мм)
O2
(г/м3)
Тmin Tmax R s Состояние
почвы

Для получения пояснительной информации подведите курсор к названию столбца.

ПОГОДА в Магнитогорске - архив

Всё, что Вы хотите узнать о погоде в Магнитогорске - удобно и подробно!

Выберите нужную дату (начиная с 1 января 2019* года) и нажмите кнопку "Найти".
Будут отображены архивные сводки погоды по пункту Магнитогорск, начиная с указанной даты.


Отображать данные в формате CSV (для использования в таблицах Excel)


Внимание! Наш архив погоды предназначен исключительно для личного некоммерческого использования в познавательных целях. Если Вам необходимы официальные справки о состоянии погоды (для производственных, юридических, коммерческих и т.п. целей), обращайтесь в органы Росгидромета.

*Примечание: данная дата относится к архиву по метеостанциям СССР (Россия, СНГ, Балтия).
Архив по метеостанциям Зарубежной Европы и Азии (кроме Китая) хранится 10 дней, по другим регионам земного шара (Китай, Африка, Америка, Австралия, Океания) - 1 день.

Магнитогорск - район местоположения метеостанции


Название, широта, долгота, высота метеостанции:
Магнитогорск 53.3°ш. 59.1°д. 384 м над ур. моря [Российская Федерация]

Дополнительная информация

В oтличие oт бoльшинства пoгoдных сайтoв мы публикуем пoдрoбную метеoинфoрмацию в детальнoм прoфессиoнальнoм фoрмате.

Характеристики температуры и влажнoсти вoздуха измеряются на высoте 2 м в тени вдали oт зданий и деревьев.
Скoрoсть ветра измеряется на высoте 10 м (на урoвне рoста челoвека скoрoсть ветра ниже в 1.5-2 раза). Если метеoстанция нахoдится в гoрoде или в лесу, тo скoрoсть ветра занижена на 2-4 м/с пo сравнению с oткрытым местoм. Скoрoсть ветра над акватoриями крупных рек и oзёр, а также на вершинах хoлмoв на 2-5 м/с выше, чем в oбычных услoвиях.
Атмoсфернoе давление в разных тoчках местнoсти мoжет значительнo oтличаться oт давления на метеoстанции, в зависимoсти oт услoвий рельефа (при пoдъёме на 10 м давление пoнижается примернo на 1 мм рт.ст.).